CW0641 Weather Reports


Display with metric or nautical units.
time (UTC)temp
F
wind
direction
speed
MPH
gust
MPH
rain 1hr
in
rain 24hr
in
rain mn
in
humidity
%
barometer
mb
20210927161540 69 321 9.0 16.0 0.00 0.00 0.00 84 1007.8
20210927161043 69 315 9.0 15.0 0.00 0.00 0.00 84 1007.8
20210927160541 69 293 9.0 15.0 0.00 0.00 0.00 83 1007.8
20210927160041 69 309 9.0 15.0 0.00 0.00 0.00 83 1007.8
20210927155542 69 315 8.0 15.0 0.00 0.00 0.00 83 1007.8
20210927155044 69 313 9.0 14.0 0.00 0.00 0.00 82 1007.9
20210927154542 69 325 8.0 17.0 0.00 0.00 0.00 82 1008.0
20210927154045 69 279 6.0 17.0 0.00 0.00 0.00 82 1008.0
20210927153542 69 264 8.0 17.0 0.00 0.00 0.00 81 1007.9
20210927153050 70 336 8.0 18.0 0.00 0.00 0.00 81 1007.7
20210927152542 70 355 8.0 19.0 0.00 0.00 0.00 81 1007.6
20210927152041 70 273 11.0 19.0 0.00 0.00 0.00 80 1007.7
20210927151540 70 340 12.0 18.0 0.00 0.00 0.00 80 1007.5
20210927151040 71 320 11.0 18.0 0.00 0.00 0.00 80 1007.6
20210927150540 71 320 12.0 18.0 0.00 0.00 0.00 79 1007.7
20210927150054 71 326 10.0 18.0 0.00 0.00 0.00 79 1007.7
20210927145540 71 300 9.0 16.0 0.00 0.00 0.00 78 1007.7
20210927145041 71 321 10.0 20.0 0.00 0.00 0.00 78 1007.7
20210927144539 71 345 9.0 20.0 0.00 0.00 0.00 77 1007.7
20210927144039 72 333 9.0 17.0 0.00 0.00 0.00 77 1007.6
20210927143540 72 0 9.0 17.0 0.00 0.00 0.00 77 1007.6
20210927143040 72 288 9.0 16.0 0.00 0.00 0.00 77 1007.6
20210927142539 72 286 9.0 17.0 0.00 0.00 0.00 77 1007.5
20210927142040 72 298 10.0 17.0 0.00 0.00 0.00 77 1007.5
20210927141542 72 266 10.0 18.0 0.00 0.00 0.00 77 1007.6
20210927141039 72 293 11.0 20.0 0.00 0.00 0.00 76 1007.7
20210927140541 72 310 11.0 20.0 0.00 0.00 0.00 76 1007.6
20210927140053 73 5 11.0 19.0 0.00 0.00 0.00 75 1007.5
20210927135540 73 317 12.0 19.0 0.00 0.00 0.00 74 1007.6
20210927135040 73 346 10.0 19.0 0.00 0.00 0.00 75 1007.7
20210927134540 73 286 9.0 17.0 0.00 0.00 0.00 75 1007.5
20210927134039 73 299 9.0 15.0 0.00 0.00 0.00 75 1007.5
20210927133540 73 350 11.0 18.0 0.00 0.00 0.00 74 1007.6
20210927133040 73 257 11.0 18.0 0.00 0.00 0.00 74 1007.6
20210927132541 74 254 11.0 17.0 0.00 0.00 0.00 73 1007.6
20210927132040 74 304 10.0 21.0 0.00 0.00 0.00 73 1007.5
20210927131540 74 324 10.0 21.0 0.00 0.00 0.00 73 1007.6
20210927131041 74 304 10.0 18.0 0.00 0.00 0.00 72 1007.5
20210927130541 74 332 11.0 17.0 0.00 0.00 0.00 71 1007.5
20210927130040 74 335 12.0 17.0 0.00 0.00 0.00 71 1007.5
20210927125540 74 288 11.0 18.0 0.00 0.00 0.00 71 1007.4
20210927125040 75 298 10.0 18.0 0.00 0.00 0.00 69 1007.5
20210927124541 75 300 9.0 18.0 0.00 0.00 0.00 68 1007.4
20210927124043 76 278 9.0 18.0 0.00 0.00 0.00 67 1007.4
20210927123539 76 320 9.0 17.0 0.00 0.00 0.00 68 1007.5
20210927123040 76 355 9.0 17.0 0.00 0.00 0.00 68 1007.3
20210927122548 75 277 9.0 15.0 0.00 0.00 0.00 69 1007.4
20210927122041 75 266 10.0 16.0 0.00 0.00 0.00 69 1007.5
20210927121535 75 318 10.0 16.0 0.00 0.00 0.00 69 1007.5
20210927121037 75 9 11.0 17.0 0.00 0.00 0.00 69 1007.5
20210927120544 75 332 9.0 17.0 0.00 0.00 0.00 69 1007.6
20210927120036 75 285 8.0 15.0 0.00 0.00 0.00 69 1007.5
20210927115541 76 309 9.0 15.0 0.00 0.00 0.00 68 1007.5
20210927115037 76 302 10.0 17.0 0.00 0.00 0.00 68 1007.4
20210927114539 76 333 11.0 17.0 0.00 0.00 0.00 67 1007.5
20210927114036 77 321 12.0 17.0 0.00 0.00 0.00 66 1007.5
20210927113540 77 314 12.0 18.0 0.00 0.00 0.00 66 1007.5
20210927113036 77 329 11.0 18.0 0.00 0.00 0.00 67 1007.4
20210927112536 76 327 11.0 18.0 0.00 0.00 0.00 68 1007.4
20210927112036 76 40 11.0 18.0 0.00 0.00 0.00 69 1007.4
20210927111536 76 342 11.0 18.0 0.00 0.00 0.00 70 1007.6
20210927111032 76 329 10.0 16.0 0.00 0.00 0.00 69 1007.6
20210927110532 76 286 10.0 17.0 0.00 0.00 0.00 69 1007.7
20210927110033 76 252 9.0 17.0 0.00 0.00 0.00 71 1007.7
20210927105532 76 305 9.0 16.0 0.00 0.00 0.00 72 1007.7
20210927105032 75 309 10.0 18.0 0.00 0.00 0.00 73 1007.8
20210927104532 75 313 9.0 18.0 0.00 0.00 0.00 73 1007.8
20210927104033 75 249 8.0 16.0 0.00 0.00 0.00 73 1007.9
20210927103532 75 293 9.0 16.0 0.00 0.00 0.00 73 1007.9
20210927103037 75 319 10.0 16.0 0.00 0.00 0.00 73 1008.0
20210927102532 75 290 10.0 16.0 0.00 0.00 0.00 73 1007.8
20210927102032 76 296 9.0 16.0 0.00 0.00 0.00 72 1007.9
20210927101532 76 275 9.0 16.0 0.00 0.00 0.00 72 1008.0
20210927101032 76 269 9.0 16.0 0.00 0.00 0.00 72 1008.0
20210927100532 77 277 10.0 16.0 0.00 0.00 0.00 70 1008.0
20210927100042 77 17 9.0 16.0 0.00 0.00 0.00 71 1008.0
20210927095529 76 19 9.0 17.0 0.00 0.00 0.00 72 1008.1
20210927095028 76 355 9.0 17.0 0.00 0.00 0.00 71 1008.2
20210927094528 76 343 9.0 15.0 0.00 0.00 0.00 70 1008.1
20210927094027 76 304 9.0 15.0 0.00 0.00 0.00 72 1008.2
20210927093524 76 323 9.0 19.0 0.00 0.00 0.00 73 1008.2
20210927093024 76 321 8.0 19.0 0.00 0.00 0.00 72 1008.3
20210927092524 76 320 8.0 13.0 0.00 0.00 0.00 72 1008.3
20210927092024 76 303 10.0 16.0 0.00 0.00 0.00 72 1008.5
20210927091523 76 335 10.0 18.0 0.00 0.00 0.00 71 1008.5
20210927091024 77 332 9.0 18.0 0.00 0.00 0.00 72 1008.5
20210927090525 77 343 9.0 14.0 0.00 0.00 0.00 72 1008.6
20210927090024 76 344 7.0 14.0 0.00 0.00 0.00 74 1008.5
20210927085524 76 312 8.0 14.0 0.00 0.00 0.00 75 1008.6
20210927085028 76 302 10.0 16.0 0.00 0.00 0.00 75 1008.7
20210927084524 76 302 8.0 16.0 0.00 0.00 0.00 74 1008.7
20210927084023 76 267 6.0 11.0 0.00 0.00 0.00 74 1008.7
20210927083524 76 282 8.0 15.0 0.00 0.00 0.00 72 1008.6
20210927083024 77 325 9.0 15.0 0.00 0.00 0.00 71 1008.7
20210927082523 78 271 8.0 16.0 0.00 0.00 0.00 71 1008.7
20210927082024 78 355 7.0 16.0 0.00 0.00 0.00 70 1008.7
20210927081520 77 267 5.0 15.0 0.00 0.00 0.00 69 1008.7
20210927081018 77 248 4.0 12.0 0.00 0.00 0.00 69 1008.7
20210927080515 76 290 5.0 11.0 0.00 0.00 0.00 71 1008.8
20210927080028 76 331 7.0 13.0 0.00 0.00 0.00 71 1008.7
20210927075516 76 257 6.0 13.0 0.00 0.00 0.00 72 1008.7
20210927075017 76 269 7.0 13.0 0.00 0.00 0.00 72 1008.8
20210927074513 76 338 7.0 12.0 0.00 0.00 0.00 75 1008.8
20210927074016 75 323 6.0 12.0 0.00 0.00 0.00 76 1008.8
20210927073512 74 271 6.0 11.0 0.00 0.00 0.00 77 1008.8
20210927073032 74 261 6.0 11.0 0.00 0.00 0.00 78 1008.8
20210927072512 74 319 7.0 12.0 0.00 0.00 0.00 79 1008.8
20210927072012 74 300 6.0 14.0 0.00 0.00 0.00 80 1008.9
20210927071512 73 248 5.0 14.0 0.00 0.00 0.00 80 1008.9
20210927071012 73 341 7.0 13.0 0.00 0.00 0.00 79 1008.8
20210927070512 74 321 8.0 13.0 0.00 0.00 0.00 79 1008.9
20210927070012 74 347 5.0 13.0 0.00 0.00 0.00 79 1008.9
20210927065512 74 267 5.0 10.0 0.00 0.00 0.00 79 1008.9
20210927065012 73 272 7.0 13.0 0.00 0.00 0.00 79 1008.9
20210927064513 73 321 7.0 13.0 0.00 0.00 0.00 80 1008.9
20210927064012 72 296 8.0 13.0 0.00 0.00 0.00 82 1008.9
20210927063512 72 311 7.0 15.0 0.00 0.00 0.00 84 1008.9
20210927063013 71 263 6.0 15.0 0.00 0.00 0.00 84 1008.9
20210927062508 71 322 6.0 11.0 0.00 0.00 0.00 86 1008.9
20210927062004 71 239 6.0 12.0 0.00 0.00 0.00 87 1008.9
20210927061504 70 265 6.0 12.0 0.00 0.00 0.00 88 1008.9
20210927061004 70 273 5.0 11.0 0.00 0.00 0.00 89 1008.9
20210927060505 70 346 3.0 9.0 0.00 0.00 0.00 90 1008.8
20210927060006 70 321 3.0 9.0 0.00 0.00 0.00 90 1008.7
20210927055503 70 249 4.0 10.0 0.00 0.00 0.00 91 1008.7
20210927054956 70 296 4.0 10.0 0.00 0.00 0.00 91 1008.6
20210927054455 70 237 5.0 10.0 0.00 0.00 0.00 92 1008.6
20210927053957 69 324 5.0 10.0 0.00 0.00 0.00 92 1008.7
20210927053456 70 281 5.0 10.0 0.00 0.00 0.00 92 1008.6
20210927052956 69 335 4.0 10.0 0.00 0.00 0.00 93 1008.5
20210927052456 69 299 3.0 9.0 0.00 0.00 0.00 93 1008.6
20210927051956 69 278 4.0 10.0 0.00 0.00 0.00 93 1008.5
20210927051457 69 344 5.0 10.0 0.00 0.00 0.00 93 1008.6
20210927050958 69 290 5.0 10.0 0.00 0.00 0.00 93 1008.5
20210927050458 69 322 4.0 9.0 0.00 0.00 0.00 93 1008.6
20210927045958 69 308 4.0 9.0 0.00 0.00 0.00 93 1008.6
20210927045458 69 323 4.0 9.0 0.00 0.00 0.00 93 1008.6
20210927044958 69 290 4.0 9.0 0.00 0.00 0.00 93 1008.6
20210927044456 69 318 5.0 10.0 0.00 0.00 0.00 93 1008.5
20210927043955 69 332 6.0 10.0 0.00 0.00 0.00 93 1008.6
20210927043457 69 336 5.0 11.0 0.00 0.00 0.00 93 1008.6
20210927042944 69 279 5.0 12.0 0.00 0.00 0.00 93 1008.5
20210927042446 69 333 6.0 12.0 0.00 0.00 0.00 93 1008.5
20210927041944 69 314 5.0 12.0 0.00 0.00 0.00 93 1008.5
20210927041441 69 307 6.0 14.0 0.00 0.00 0.00 93 1008.3
20210927040942 69 314 6.0 14.0 0.00 0.00 0.00 93 1008.3
20210927040440 69 348 4.0 10.0 0.00 0.00 0.00 93 1008.3
20210927035941 69 312 4.0 9.0 0.00 0.00 0.00 93 1008.3
20210927035440 69 302 4.0 10.0 0.00 0.00 0.00 93 1008.3
20210927034940 69 311 4.0 10.0 0.00 0.00 0.00 93 1008.3
20210927034441 69 310 3.0 8.0 0.00 0.00 0.00 93 1008.3
20210927033941 69 289 4.0 11.0 0.00 0.00 0.00 93 1008.3
20210927033441 69 290 5.0 11.0 0.00 0.00 0.00 93 1008.3
20210927032946 69 320 5.0 10.0 0.00 0.00 0.00 93 1008.5
20210927032448 69 252 5.0 10.0 0.00 0.00 0.00 93 1008.3
20210927031950 69 329 4.0 9.0 0.00 0.00 0.00 92 1008.3
20210927031449 69 289 5.0 12.0 0.00 0.00 0.00 92 1008.2
20210927030936 69 311 5.0 12.0 0.00 0.00 0.00 92 1008.3
20210927030436 69 297 5.0 11.0 0.00 0.00 0.00 92 1008.3
20210927025936 69 295 4.0 9.0 0.00 0.00 0.00 92 1008.3
20210927025436 69 288 4.0 10.0 0.00 0.00 0.00 92 1008.3
20210927024936 69 302 5.0 12.0 0.00 0.00 0.00 92 1008.3
20210927024436 69 265 5.0 12.0 0.00 0.00 0.00 92 1008.3
20210927023936 69 235 4.0 9.0 0.00 0.00 0.00 92 1008.2
20210927023428 69 251 3.0 9.0 0.00 0.00 0.00 92 1008.3
20210927022928 69 319 3.0 9.0 0.00 0.00 0.00 91 1008.1
20210927022427 68 310 3.0 9.0 0.00 0.00 0.00 91 1008.1
20210927021928 68 314 3.0 8.0 0.00 0.00 0.00 91 1008.0
20210927021428 68 311 2.0 5.0 0.00 0.00 0.00 91 1008.1
20210927020929 68 351 2.0 8.0 0.00 0.00 0.00 91 1008.1
20210927020430 68 284 1.0 8.0 0.00 0.00 0.00 91 1008.0
20210927015925 68 278 1.0 5.0 0.00 0.00 0.00 91 1007.9
20210927015422 68 252 1.0 4.0 0.00 0.00 0.00 91 1007.9
20210927014920 68 284 1.0 4.0 0.00 0.00 0.00 91 1007.9
20210927014420 68 244 2.0 7.0 0.00 0.00 0.00 91 1007.9
20210927013920 68 283 2.0 7.0 0.00 0.00 0.00 91 1008.0
20210927013416 68 293 2.0 7.0 0.00 0.00 0.00 91 1008.0
20210927012912 69 331 4.0 9.0 0.00 0.00 0.00 90 1007.9
20210927012404 69 291 4.0 9.0 0.00 0.00 0.00 90 1008.0
20210927011905 69 322 2.0 9.0 0.00 0.00 0.00 90 1008.0
20210927011407 69 331 2.0 8.0 0.00 0.00 0.00 90 1008.0
20210927010905 69 288 2.0 8.0 0.00 0.00 0.00 90 1008.0
20210927010404 69 260 2.0 6.0 0.00 0.00 0.00 90 1008.0
20210927005905 69 312 2.0 8.0 0.00 0.00 0.00 89 1008.0
20210927005405 69 344 3.0 8.0 0.00 0.00 0.00 89 1008.0
20210927004903 69 296 3.0 7.0 0.00 0.00 0.00 89 1008.1
20210927004404 69 306 2.0 6.0 0.00 0.00 0.00 89 1008.1
20210927003904 69 305 2.0 7.0 0.00 0.00 0.00 88 1008.1
20210927003405 69 268 3.0 8.0 0.00 0.00 0.00 88 1008.1
20210927002904 69 300 2.0 8.0 0.00 0.00 0.00 88 1008.1
20210927002405 69 271 1.0 7.0 0.00 0.00 0.00 88 1008.1
20210927001904 69 254 1.0 3.0 0.00 0.00 0.00 87 1008.1
20210927001406 69 310 1.0 4.0 0.00 0.00 0.00 87 1008.0
20210927000905 69 311 2.0 5.0 0.00 0.00 0.00 87 1008.0
20210927000404 69 306 2.0 7.0 0.00 0.00 0.00 87 1008.0
20210926235904 69 292 1.0 7.0 0.00 0.00 0.00 87 1008.0
20210926235404 69 339 0.0 3.0 0.00 0.00 0.00 86 1008.1
20210926234904 69 292 0.0 0.0 0.00 0.00 0.00 86 1008.0
20210926234356 69 292 0.0 0.0 0.00 0.00 0.00 86 1008.0
20210926233852 69 292 0.0 0.0 0.00 0.00 0.00 85 1008.0
20210926233355 69 292 0.0 0.0 0.00 0.00 0.00 85 1008.0
20210926232850 69 292 0.0 2.0 0.00 0.00 0.00 85 1007.9
20210926232337 69 292 0.0 2.0 0.00 0.00 0.00 85 1008.0
20210926231834 69 292 0.0 2.0 0.00 0.00 0.00 85 1007.9
20210926231331 70 292 0.0 2.0 0.00 0.00 0.00 85 1008.0
20210926230828 70 292 0.0 0.0 0.00 0.00 0.00 85 1008.0
20210926230329 70 292 0.0 0.0 0.00 0.00 0.00 84 1008.0
20210926225828 70 292 0.0 0.0 0.00 0.00 0.00 84 1008.0
20210926225323 70 292 0.0 1.0 0.00 0.00 0.00 84 1008.0
20210926224827 70 292 0.0 2.0 0.00 0.00 0.00 84 1008.1
20210926224316 70 292 0.0 2.0 0.00 0.00 0.00 84 1008.2
20210926223816 70 292 0.0 2.0 0.00 0.00 0.00 83 1008.3
20210926223309 70 292 0.0 0.0 0.00 0.00 0.00 83 1008.3
20210926222809 70 292 0.0 3.0 0.00 0.00 0.00 82 1008.3
20210926222308 71 292 0.0 4.0 0.00 0.00 0.00 82 1008.3
20210926221804 71 292 1.0 4.0 0.00 0.00 0.00 82 1008.6
20210926221305 71 292 1.0 4.0 0.00 0.00 0.00 81 1008.6
20210926220804 71 287 1.0 4.0 0.00 0.00 0.00 81 1008.6
20210926220303 71 285 1.0 3.0 0.00 0.00 0.00 80 1008.7
20210926215804 71 288 0.0 3.0 0.00 0.00 0.00 80 1008.7
20210926215306 71 270 0.0 2.0 0.00 0.00 0.00 79 1008.7
20210926214805 71 270 0.0 3.0 0.00 0.00 0.00 79 1008.7
20210926214305 71 270 0.0 3.0 0.00 0.00 0.00 78 1008.7
20210926213759 71 294 0.0 3.0 0.00 0.00 0.00 78 1008.8
20210926213301 71 294 0.0 3.0 0.00 0.00 0.00 77 1008.8
20210926212755 71 247 0.0 2.0 0.00 0.00 0.00 76 1008.8
20210926212255 71 247 0.0 2.0 0.00 0.00 0.00 75 1008.9
20210926211755 71 273 0.0 1.0 0.00 0.00 0.00 74 1008.9
20210926211256 71 273 0.0 2.0 0.00 0.00 0.00 74 1008.8
20210926210756 71 273 0.0 2.0 0.00 0.00 0.00 73 1008.9
20210926210255 71 273 0.0 3.0 0.00 0.00 0.00 72 1008.9
20210926205754 71 273 0.0 3.0 0.00 0.00 0.00 72 1008.9
20210926205255 71 273 0.0 0.0 0.00 0.00 0.00 72 1009.0
20210926204755 71 273 0.0 0.0 0.00 0.00 0.00 71 1008.9
20210926204257 71 273 0.0 0.0 0.00 0.00 0.00 70 1009.0
20210926203757 71 273 0.0 0.0 0.00 0.00 0.00 70 1009.0
20210926203253 71 273 0.0 1.0 0.00 0.00 0.00 69 1009.0
20210926202747 71 273 0.0 1.0 0.00 0.00 0.00 69 1009.1
20210926202247 72 273 0.0 0.0 0.00 0.00 0.00 69 1009.0
20210926201746 72 273 0.0 0.0 0.00 0.00 0.00 69 1008.9
20210926201247 72 273 0.0 0.0 0.00 0.00 0.00 69 1009.0
20210926200731 72 273 0.0 0.0 0.00 0.00 0.00 69 1009.0
20210926200237 72 273 0.0 0.0 0.00 0.00 0.00 69 1009.0
20210926195724 72 273 0.0 0.0 0.00 0.00 0.00 69 1009.0
20210926195215 73 273 0.0 0.0 0.00 0.00 0.00 68 1009.1
20210926194714 73 273 0.0 0.0 0.00 0.00 0.00 68 1009.1
20210926194211 73 273 0.0 0.0 0.00 0.00 0.00 68 1009.1
20210926193707 73 273 0.0 0.0 0.00 0.00 0.00 67 1009.2
20210926193158 73 273 0.0 0.0 0.00 0.00 0.00 68 1009.1
20210926192659 73 273 0.0 0.0 0.00 0.00 0.00 68 1009.1
20210926192156 73 273 0.0 0.0 0.00 0.00 0.00 67 1009.2
20210926191654 73 273 0.0 0.0 0.00 0.00 0.00 67 1009.2
20210926191155 74 273 0.0 0.0 0.00 0.00 0.00 67 1009.1
20210926190655 74 273 0.0 0.0 0.00 0.00 0.00 66 1009.2
20210926190151 74 273 0.0 0.0 0.00 0.00 0.00 66 1009.1
20210926185639 74 273 0.0 0.0 0.00 0.00 0.00 66 1009.2
20210926185136 74 273 0.0 0.0 0.00 0.00 0.00 66 1009.2
20210926184635 74 273 0.0 0.0 0.00 0.00 0.00 66 1009.1
20210926184132 74 273 0.0 0.0 0.00 0.00 0.00 65 1009.1
20210926183627 74 273 0.0 0.0 0.00 0.00 0.00 65 1009.2
20210926183122 75 273 0.0 0.0 0.00 0.00 0.00 65 1009.2
20210926182623 75 273 0.0 0.0 0.00 0.00 0.00 64 1009.1
20210926182124 75 273 0.0 0.0 0.00 0.00 0.00 64 1009.2
20210926181618 75 273 0.0 0.0 0.00 0.00 0.00 64 1009.1
20210926181119 75 273 0.0 0.0 0.00 0.00 0.00 64 1009.1
20210926180603 75 273 0.0 0.0 0.00 0.00 0.00 63 1009.0
20210926180103 76 273 0.0 0.0 0.00 0.00 0.00 63 1008.9
20210926175604 76 273 0.0 0.0 0.00 0.00 0.00 63 1008.9
20210926174547 76 273 0.0 0.0 0.00 0.00 0.00 62 1008.8
20210926174042 76 273 0.0 0.0 0.00 0.00 0.00 62 1008.8
20210926173533 76 273 0.0 0.0 0.00 0.00 0.00 62 1008.8
20210926173025 77 273 0.0 0.0 0.00 0.00 0.00 61 1008.9
20210926172518 77 273 0.0 0.0 0.00 0.00 0.00 61 1008.8
20210926172019 77 273 0.0 0.0 0.00 0.00 0.00 61 1008.9
20210926171518 77 273 0.0 0.0 0.00 0.00 0.00 60 1008.8
20210926171020 77 273 0.0 0.0 0.00 0.00 0.00 60 1008.8
20210926170511 77 273 0.0 1.0 0.00 0.00 0.00 60 1008.8
20210926170007 78 273 0.0 1.0 0.00 0.00 0.00 59 1008.8
20210926165506 78 273 0.0 2.0 0.00 0.00 0.00 58 1008.8
20210926165008 78 273 0.0 2.0 0.00 0.00 0.00 58 1008.7
20210926164507 78 272 0.0 3.0 0.00 0.00 0.00 58 1008.7
20210926164003 78 272 0.0 3.0 0.00 0.00 0.00 57 1008.7
20210926163502 78 272 1.0 3.0 0.00 0.00 0.00 57 1008.6
20210926163001 78 270 2.0 5.0 0.00 0.00 0.00 56 1008.6
20210926162502 79 296 2.0 5.0 0.00 0.00 0.00 56 1008.6
20210926161958 79 331 2.0 5.0 0.00 0.00 0.00 56 1008.6